Location: Cheyres
(46.8153°N, 6.7877°E)
Time: 04:18:13
(UTC+00:00)

Cosmos 1151 Rocket - Pass Details

Date: 11 May 2021
Orbit: 591 x 616 km, 82.5° (Epoch: 18 June)

Event Time Altitude Azimuth Distance (km) Brightness Sun altitude
Exits shadow 19:56:20 - 174° (S) 2,533 5.8 -9.4°
Reaches altitude 10° 19:57:45 10° 171° (S) 1,963 5.2 -9.6°
Maximum altitude 20:01:59 54° 94° (E) 755 3.2 -10.1°
Drops below altitude 10° 20:06:17 10° 18° (NNE) 1,988 6.0 -10.7°
Sets 20:08:33 0° 14° (NNE) 2,900 6.9 -11.0°
